Bookmark and Share
Track history (hours):
 

Hatsu Excel

Last reported at 2014-Apr-18 07:23 UTC. Time now 2014-Apr-21 07:40 UTC.
Position N 30°23' E 122°53'.

Type: Ship (hazmat cat D). MMSI: 235479000.

NotesDate/timePositionNaut miles runAvg speedWind from/ knotsBaromVisibWave heightAir tempDewpointWater temp
2014-Apr-18 07:23N 30°23' E 122°53'1513.7
2014-Apr-18 06:19N 30°29' E 122°38'1113.0
2014-Apr-18 05:26N 30°31' E 122°25'910.1
2014-Apr-18 04:32N 30°33' E 122°14'10 9.9
2014-Apr-18 03:33N 30°37' E 122°04'44 1.1
2014-Apr-16 10:32N 30°35' E 122°54'29216.9
2014-Apr-15 17:18N 35°16' E 121°19'1418.1
2014-Apr-15 16:33N 35°28' E 121°10'2019.3
2014-Apr-15 15:33N 35°42' E 120°53'2018.6
2014-Apr-15 14:28N 35°57' E 120°38'15 7.6
2014-Apr-15 12:34N 36°01' E 120°20'5 0.3
2014-Apr-14 20:30N 36°01' E 120°14'8 8.5
2014-Apr-14 19:34N 36°01' E 120°24'1111.2
2014-Apr-14 18:34N 35°58' E 120°37'1 1.3
2014-Apr-14 17:34N 35°58' E 120°39'41613.4
2014-Apr-13 10:33N 35°05' E 129°06'2 1.7
2014-Apr-13 09:20N 35°06' E 129°04'0 0.0
2014-Apr-13 08:32N 35°06' E 129°04'0 0.0
2014-Apr-13 07:32N 35°06' E 129°04'0 0.0
2014-Apr-13 06:32N 35°06' E 129°04'0 0.0
2014-Apr-13 05:26N 35°06' E 129°04'0 0.0
2014-Apr-13 04:26N 35°06' E 129°04'0 0.0
2014-Apr-13 02:33N 35°06' E 129°04'7 6.9
2014-Apr-13 01:33N 35°02' E 129°10'291 9.1
2014-Apr-11 17:32N 33°50' E 134°53'1817.8
2014-Apr-11 16:33N 34°07' E 134°57'1615.5
2014-Apr-11 15:33N 34°22' E 135°01'1818.1
2014-Apr-11 14:33N 34°34' E 135°17'7 7.2
2014-Apr-11 13:31N 34°39' E 135°24'0 0.0
2014-Apr-11 12:31N 34°39' E 135°24'0 0.0
2014-Apr-11 11:19N 34°39' E 135°24'0 0.0
2014-Apr-11 10:19N 34°39' E 135°24'0 0.0
2014-Apr-11 09:25N 34°39' E 135°24'0 0.0
2014-Apr-11 08:31N 34°39' E 135°24'0 0.0
2014-Apr-11 07:33N 34°39' E 135°24'9 9.3
2014-Apr-11 06:33N 34°32' E 135°16'1716.8
2014-Apr-11 05:33N 34°20' E 135°02'1212.0
2014-Apr-11 04:33N 34°08' E 134°60'1412.8
2014-Apr-11 03:30N 33°55' E 134°60'23816.7
2014-Apr-10 13:14N 34°56' E 139°38'1217.9
2014-Apr-10 12:33N 35°07' E 139°44'1211.9
2014-Apr-10 11:33N 35°19' E 139°43'1211.6
2014-Apr-10 10:33N 35°29' E 139°50'8 8.1
2014-Apr-10 09:33N 35°37' E 139°47'0 0.1
2014-Apr-10 08:07N 35°37' E 139°47'0 0.0
2014-Apr-10 07:25N 35°37' E 139°47'0 0.0
2014-Apr-10 06:31N 35°37' E 139°47'0 0.0
2014-Apr-10 05:28N 35°37' E 139°47'0 0.0
2014-Apr-10 04:28N 35°37' E 139°47'0 0.0
2014-Apr-10 02:28N 35°37' E 139°47'0 0.0
2014-Apr-10 00:31N 35°37' E 139°47'0 0.0
2014-Apr-09 23:31N 35°37' E 139°47'0 0.0
2014-Apr-09 22:31N 35°37' E 139°47'0 0.0
2014-Apr-09 21:31N 35°37' E 139°47'0 0.0
2014-Apr-09 20:22N 35°37' E 139°47'0 0.0
2014-Apr-09 19:22N 35°37' E 139°47'0 0.0
2014-Apr-09 18:28N 35°37' E 139°47'0 0.0
2014-Apr-09 17:31N 35°37' E 139°47'0 0.1
2014-Apr-09 16:33N 35°37' E 139°47'5 4.7
2014-Apr-09 15:33N 35°34' E 139°51'1 1.0
2014-Apr-09 14:33N 35°34' E 139°52'0 0.1
2014-Apr-09 13:33N 35°34' E 139°52'0 0.0
2014-Apr-09 12:33N 35°34' E 139°52'0 0.0
2014-Apr-09 11:33N 35°34' E 139°52'0 0.0
2014-Apr-09 10:33N 35°34' E 139°52'0 0.1
2014-Apr-09 09:33N 35°34' E 139°52'0 0.0
2014-Apr-09 08:33N 35°34' E 139°52'0 0.0
2014-Apr-09 07:33N 35°34' E 139°52'0 0.1
2014-Apr-09 06:31N 35°34' E 139°52'0 0.0
2014-Apr-09 05:28N 35°34' E 139°52'0 0.2
2014-Apr-09 04:31N 35°34' E 139°52'0 0.1
2014-Apr-09 03:28N 35°34' E 139°53'0 0.0
2014-Apr-09 02:28N 35°34' E 139°53'0 0.0
2014-Apr-09 01:33N 35°34' E 139°53'0 0.0
2014-Apr-09 00:33N 35°34' E 139°53'0 0.1
2014-Apr-08 23:33N 35°34' E 139°52'1010.0
2014-Apr-08 22:34N 35°25' E 139°47'1211.9
2014-Apr-08 21:34N 35°13' E 139°47'10 9.6
2014-Apr-08 20:33N 35°04' E 139°44'1514.8
2014-Apr-08 19:33N 34°49' E 139°42'6 6.3
2014-Apr-08 18:33N 34°43' E 139°42'0 0.5
2014-Apr-08 17:33N 34°43' E 139°43'1 0.8
2014-Apr-08 16:27N 34°42' E 139°43'1 1.1
2014-Apr-08 15:32N 34°41' E 139°44'1 0.8
2014-Apr-08 14:30N 34°40' E 139°44'2 0.8
2014-Apr-08 12:33N 34°40' E 139°46'1111.5
2014-Apr-08 11:33N 34°44' E 139°59'1312.8
2014-Apr-08 10:32N 34°51' E 140°13'2611.5
2014-Apr-08 08:18N 35°09' E 140°35'  

Dump ship's entire track history

sailing weather and tide predictions

Hatsu Excel — VSXV3 — position and weather